星链-5561 (STARLINK-5561 )

导读 | 豆包AI

STARLINK-5561是美国太空探索技术公司星链互联网卫星计划中的一员,于2023年4月27日发射入轨,属于星链组网的第二代卫星。它运行在近地轨道,旨在为全球提供高速低延迟的互联网覆盖服务,尤其是为偏远地区、海上和航空用户提供网络接入,是星链大规模组网建设的重要组成部分,助力构建全球卫星互联网星座。

基本信息
目录编号:
56337
目录名称:
STARLINK-5561
国际标识:
2023-058W
轨道中心:
EARTH
卫星名称:
星链-5561
卫星全名:
星链-5561 (STARLINK-5561 )
卫星状态:
在轨 (已飞行1099 天)
发射日期:
2023-04-27 UTC
国别 :
美国 (US)
星等 :
--
轨道信息
数据来源 国际轨道数据
星历时间: 2026-04-30T08:06:15+0800
12小时前
查看轨道信息
半长轴: 6927.428km
偏心率: 0.0001753
轨道倾角: 97.556°
近地点辐角 55.012°
升交点赤经 120.625°
平近点角 305.127°
近地点: 548.076km
远地点: 550.506km
周期: 95.635分钟
每日圈数: 15.057221
详细信息
固有亮度:
5
最大亮度:
2.5
卫星平台:
Starlink v1.5
覆盖范围:
全球
运营商:
太空探索技术公司
运营商所在国:
美国
制造商(研发单位):
太空探索技术公司
制造商所在国:
美国
使用方式:
暂无
卫星简介
星链(Starlink)计划是由太空探索技术公司(SpaceX)提出的一个巨型低轨卫星互联网星座项目,计划在2019年至2024年间在太空搭建由约1.2万颗卫星组成的“星链”网络,其中1584颗将部署在地球上空550千米处的近地轨道,并从2020年开始工作。该卫星仍在工作。
2D轨道图
3D轨道图
轨道高度分析图
轨道倾角分析图
轨道综合分析图
查看轨道综合分析图